This is the latest recevied weather packets stored in our database for station/object WY7EM. If no packets are shown the sender has not sent any weather packets the latest 10 day(s).
| Time | Temp. | Humidity | Pressure | Rain* | Wind** | Luminosity | Snow |
|---|---|---|---|---|---|---|---|
| 1777730624 | 12.22° C | 24% | 1020.5 hPa | 0 mm | - | 37 W/m² | - |
| 1777730320 | 12.78° C | 22% | 1020.2 hPa | 0 mm | - | 37 W/m² | - |
| 1777730017 | 12.22° C | 23% | 1020.3 hPa | 0 mm | - | 35 W/m² | - |
| 1777729713 | 11.11° C | 24% | 1020.3 hPa | 0 mm | - | 34 W/m² | - |
| 1777729410 | 11.11° C | 25% | 1020 hPa | 0 mm | - | 34 W/m² | - |
| 1777729106 | 11.11° C | 26% | 1019.8 hPa | 0 mm | - | 32 W/m² | - |
| 1777728803 | 11.11° C | 25% | 1019.8 hPa | 0 mm | - | 31 W/m² | - |
| 1777728500 | 10.56° C | 28% | 1019.8 hPa | 0 mm | - | 29 W/m² | - |
| 1777728197 | 10° C | 29% | 1019.6 hPa | 0 mm | - | 28 W/m² | - |
| 1777727894 | 10° C | 29% | 1019.5 hPa | 0 mm | - | 26 W/m² | - |
| 1777727591 | 9.44° C | 28% | 1019.5 hPa | 0 mm | - | 23 W/m² | - |
| 1777727288 | 9.44° C | 28% | 1019.4 hPa | 0 mm | - | 22 W/m² | - |
| 1777726986 | 10° C | 27% | 1019.4 hPa | 0 mm | - | 20 W/m² | - |
| 1777726683 | 9.44° C | 28% | 1019.5 hPa | 0 mm | - | 18 W/m² | - |
| 1777726380 | 8.89° C | 27% | 1019.3 hPa | 0 mm | - | 15 W/m² | - |
| 1777726076 | 8.89° C | 26% | 1019.3 hPa | 0 mm | - | 12 W/m² | - |
| 1777725773 | 9.44° C | 25% | 1019.3 hPa | 0 mm | - | 9 W/m² | - |
| 1777725472 | 10° C | 25% | 1019.1 hPa | 0 mm | - | 6 W/m² | - |
| 1777725169 | 10° C | 25% | 1019 hPa | 0 mm | - | 4 W/m² | - |
| 1777724865 | 10° C | 25% | 1018.9 hPa | 0 mm | - | 2 W/m² | - |
| 1777724561 | 10° C | 25% | 1019 hPa | 0 mm | - | 1 W/m² | - |
| 1777724260 | 10° C | 25% | 1018.8 hPa | 0 mm | - | 0 W/m² | - |
| 1777723957 | 9.44° C | 26% | 1019 hPa | 0 mm | - | 0 W/m² | - |
| 1777723653 | 9.44° C | 25% | 1019 hPa | 0 mm | - | 0 W/m² | - |
| 1777723350 | 10° C | 26% | 1018.8 hPa | 0 mm | - | 0 W/m² | - |
* Rain latest hour (hover to see other rain measurements)
** Current wind speed in m/s (hover to see current wind gust speed)